#timestamp,LO_Frequency,Hit,StdDev 
1508857215.9,286046997.8,N
1508857235.7,286046995.6,Y
1508857255.6,286046999.3,P
1508857275.4,286046998.4,N
1508857295.3,286046998.8,N
1508857315.1,286046996.5,Y
1508857316.0,286046996.5,P
1508857335.8,286046997.4,N
1508857355.7,286046997.0,P
1508857375.5,286046999.3,N
1508857395.3,286047000.9,N
1508857415.2,286047001.0,N
1508857435.0,286046998.2,N
1508857435.9,286046998.2,N
1508857455.8,286047001.1,N
1508857475.6,286046998.1,N
1508857495.4,286047000.9,N
1508857515.3,286046998.1,N
1508857535.1,286047000.8,N
1508857555.9,286047000.0,N
1508857575.7,286047001.1,N
1508857595.5,286047000.5,N
1508857615.4,286047000.8,N
1508857635.2,286047000.8,N
1508857655.0,286047002.2,N
1508857655.9,286047002.2,N
1508857675.8,286047004.4,N
1508857695.6,286047003.8,N
1508857715.5,286047004.4,N
1508857735.3,286047000.3,N
1508857755.1,286047002.4,N
1508857775.9,286047002.6,N
1508857795.7,286046999.8,N
1508857815.5,286047000.1,N
1508857835.4,286047000.9,N
1508857855.2,286047002.1,N
1508857905.1,286047002.7,E
1508857915.0,286046999.7,N
1508857915.9,286046999.7,P
1508857935.8,286047001.2,P
1508857955.6,286046996.5,Y
1508857975.4,286046998.2,P
1508857995.3,286047000.8,N
1508858015.1,286047000.2,N
1508858035.8,286047001.0,N
1508858055.7,286047002.6,N
1508858075.5,286047000.9,N
1508858095.4,286047002.3,N
1508858115.2,286046999.7,N
1508858135.0,286046999.7,N
1508858135.9,286046999.7,N
1508858155.8,286047002.8,N
1508858175.6,286046999.8,N
1508858195.5,286047001.0,N
1508858215.3,286047000.7,N
1508858235.1,286047000.1,N
1508858255.9,286047000.6,N
1508858275.7,286047000.8,N
1508858295.5,286047002.4,N
1508858315.4,286047001.6,N
1508858335.2,286046999.8,N
1508858355.1,286047002.6,N
1508858356.0,286047002.6,N
1508858375.8,286047001.0,N
1508858395.6,286047000.3,N
1508858415.5,286047001.6,N
1508858435.3,286047002.2,N
1508858455.1,286047002.1,N
1508858475.9,286047002.3,N
1508858495.7,286047000.5,N
1508858515.6,286047002.6,N
1508858535.4,286047004.1,Y
1508858555.2,286047004.0,P
1508858575.1,286047000.0,N
1508858576.0,286047000.0,N
1508858595.8,286047000.0,N
1508858615.7,286047001.2,N
1508858635.5,286046996.5,N
1508858655.3,286046998.9,N
1508858675.2,286046997.6,N
1508858695.0,286046999.4,N
1508858695.9,286046999.4,N
1508858715.7,286046999.7,N
1508858735.6,286047000.4,N
1508858755.4,286046998.5,N
1508858775.3,286046999.6,N
1508858795.1,286046998.4,N
1508858796.0,286046998.4,N
1508858815.8,286047000.7,N
1508858835.7,286047000.1,N
1508858855.5,286046999.8,N
1508858875.4,286047002.7,N
1508858895.2,286046999.8,N
1508858915.0,286047002.5,N
1508858915.9,286047002.5,N
1508858935.8,286047001.8,N
1508858955.6,286047001.5,N
1508858975.4,286047002.9,N
1508858995.3,286047005.9,Y
1508859015.1,286047005.7,P
1508859035.9,286047003.7,N
1508859055.7,286047003.7,N
1508859075.5,286047004.4,N
1508859095.4,286047003.0,N
1508859115.2,286047005.9,Y
1508859135.1,286047000.6,P
1508859136.0,286047000.6,N
1508859155.8,286047001.1,N
1508859175.6,286047000.0,N
1508859195.5,286047000.1,N
1508859215.3,286046998.3,N
1508859235.1,286046998.8,N
1508859255.9,286046999.6,N
1508859275.7,286046996.8,N
1508859295.6,286046999.5,N
1508859315.4,286046999.1,N
1508859335.2,286046998.7,N
1508859355.1,286046999.3,N
1508859356.0,286046999.3,N
1508859375.8,286046999.5,N
1508859395.7,286046997.4,N
1508859415.5,286046999.1,N
1508859435.3,286046999.6,N
1508859455.2,286046997.7,N
1508859475.9,286046997.5,N
1508859495.7,286046997.6,N
1508859515.6,286046995.4,Y
1508859535.4,286046997.6,P
1508859555.3,286046995.8,P
1508859575.1,286046993.9,P
1508859576.0,286046993.9,Y
1508859595.8,286046999.9,P
1508859615.7,286046999.9,N
1508859635.5,286047002.8,N
1508859655.4,286046998.6,N
1508859675.2,286047000.6,N
1508859695.0,286047000.6,N
1508859695.9,286047000.6,N
1508859715.8,286046998.1,N
1508859735.6,286047000.1,N
1508859755.4,286047002.7,N
1508859775.3,286047002.0,N
1508859795.1,286046999.7,N
1508859815.9,286047002.8,N
1508859835.7,286047000.1,N
1508859855.5,286047002.6,N
1508859875.4,286047002.5,N
1508859895.2,286047002.2,N
1508859915.0,286047001.7,N
1508859915.9,286047001.7,N
1508859935.8,286046999.7,N
1508859955.6,286047000.5,N
1508859975.5,286046999.8,N
1508859995.3,286047002.0,N
1508860015.1,286047001.7,N
1508860035.9,286047004.4,N
1508860055.7,286047002.8,N
1508860075.5,286046996.9,N
1508860095.4,286047001.1,N
1508860115.2,286046999.7,N
1508860135.1,286047003.8,N
1508860136.0,286047003.8,N
1508860155.8,286047004.3,N
1508860175.6,286047004.4,N
1508860195.5,286047000.6,N
1508860215.3,286046998.5,N
1508860235.2,286046994.9,N
1508860255.9,286046997.8,N
1508860275.7,286047000.0,N
1508860295.6,286047000.7,N
1508860315.4,286046996.7,N
1508860335.2,286046995.4,N
1508860355.1,286046993.4,N
1508860356.0,286046993.4,N
1508860375.8,286046994.0,N
1508860395.7,286046995.9,N
1508860415.5,286046993.5,N
1508860435.3,286046996.0,N
1508860455.2,286046995.7,N
1508860475.0,286046995.9,N
1508860475.9,286046995.9,N
1508860495.8,286046994.0,N
1508860515.6,286046992.6,N
1508860535.4,286046993.9,N
1508860555.3,286046993.9,N
1508860575.1,286046994.6,N
1508860595.8,286046994.4,N
1508860615.7,286046993.3,N
1508860635.5,286046994.0,N
1508860655.4,286046991.7,N
1508860675.2,286046992.1,N
1508860695.0,286046992.1,N
1508860695.9,286046992.1,N
1508860715.8,286046993.3,N
1508860735.6,286046993.8,N
1508860755.4,286046995.8,N
1508860805.3,286046995.6,E
